Regional Weather Roundup
Issued by NWS Huntsville, AL

Home | Current Version | Previous Version | Text Only | Print | Product List | Glossary On
Versions: 1 2 3 4 5 6 7 8 9 10 11 12 13 14 15 16 17 18 19 20 21 22 23 24 25 26 27 28 29 30 31 32 33 34 35 36 37 38 39 40 41 42 43 44 45 46 47 48 49 50
406
ASUS44 KHUN 060110
RWRHUN

WEATHER ROUNDUP FOR THE TENNESSEE VALLEY
NATIONAL WEATHER SERVICE HUNTSVILLE AL
700 PM CST MON DEC 05 2016

ALZ001>004-060200-
NORTHWEST ALABAMA

CITY           SKY/WX    TMP DP  RH WIND       PRES   REMARKS
COURTLAND HCN    N/A     50 N/A N/A NE3         N/A
RUSSELLVILLE     N/A     50 N/A N/A MISG        N/A
SHOALS AIRPORT CLOUDY    51  48  89 E7        29.81F
SHOALS TVA RES   N/A     50 N/A N/A MISG        N/A
$$

ALZ005>007-016-060200-
NORTH CENTRAL ALABAMA

CITY           SKY/WX    TMP DP  RH WIND       PRES   REMARKS
CULLMAN AG STN   N/A     52 N/A N/A E6          N/A
DECATUR AP     CLOUDY    52  52 100 E5        29.81S
HUNTSVILLE AP  CLOUDY    53  52  96 SE13      29.80F
MERIDIANVILLE  CLOUDY    50  48  93 SE3       29.81F
REDSTONE ARSN  CLOUDY    52  51  96 SE6       29.80F
VINEMONT AP    LGT RAIN  51  50  97 E7        29.80F
$$

ALZ008>010-060200-
NORTHEAST ALABAMA

CITY           SKY/WX    TMP DP  RH WIND       PRES   REMARKS
ALBERTVILLE    CLOUDY    50  50 100 E7        29.80F
FORT PAYNE     DRIZZLE   52  46  82 NE6       29.82F
SCOTTSBORO AP  LGT RAIN  50  50 100 NE6       29.85F
SCOTTSBORO HCN   N/A     50 N/A N/A MISG        N/A
VALLEY HEAD      N/A     52 N/A N/A MISG        N/A
$$

TNZ076-096-097-060200-
SOUTHEASTERN MIDDLE TENNESSEE

CITY           SKY/WX    TMP DP  RH WIND       PRES   REMARKS
TULLAHOMA      CLOUDY    48  48 100 N5        29.86R
WINCHESTER     PTCLDY    50  48  93 SE12      29.82F
$$

...SURROUNDING SITES...

CITY           SKY/WX    TMP DP  RH WIND       PRES   REMARKS
ATLANTA        LGT RAIN  52  51  97 NE13      29.92F FOG
ANNISTON       CLOUDY    52  50  93 NE8       29.85F
BIRMINGHAM     CLOUDY    53  52  96 VRB6      29.81F
CHATTANOOGA    LGT RAIN  50  48  93 NE5       29.90F FOG
CORINTH        CLOUDY    50  48  93 E7        29.76F FOG
DALTON         RAIN      50  50 100 CALM      29.90F
GADSDEN        CLOUDY    51  50  96 E9        29.83F
GOLDEN TRNGL   NOT AVBL
HALEYVILLE     LGT RAIN  51  50  96 VRB5      29.80S
JACKSON TN     CLOUDY    46  44  93 NE8       29.81F
MEMPHIS        CLOUDY    47  45  93 NE9       29.79S
NASHVILLE      CLOUDY    48  43  82 NE7       29.89R
OXFORD MS      LGT RAIN  46  46 100 SE5       29.80R
ROME           LGT RAIN  51  50  96 CALM      29.88F FOG
SAVANNAH       CLOUDY    48  48 100 SE3       29.76F
TUPELO         CLOUDY    50  48  93 NE6       29.77F
TUSCALOOSA     CLOUDY    55  54  96 E6        29.76F
$$

...GULF COAST WEATHER...

CITY           SKY/WX    TMP DP  RH WIND       PRES   REMARKS
GULFPORT       CLOUDY    62  61  96 E7        29.72S
PASCAGOULA     CLOUDY    62  58  86 E8        29.73F
MOBILE         CLOUDY    60  60 100 NE6       29.73F
GULF SHORES    CLOUDY    62  62 100 N5        29.74F
PENSACOLA      LGT RAIN  67  63  87 N10       29.73F
DESTIN         HVY RAIN  72  32  23 VRB3      29.75
PANAMA CITY    CLOUDY    73  72  94 S13       29.78R
APPALACHICOLA  TSTM      74  74 100 S15G22    29.80R
$$





USA.gov is the U.S. government's official web portal to all federal, state and local government web resources and services.